Terminal Aerodrome Forecast
Issued by NWS Jacksonville, FL

Home | Current Version | Previous Version | Text Only | Print | Product List | Glossary On
Versions: 1 2 3 4 5 6 7 8 9 10 11 12 13 14 15 16 17 18 19 20
000
FTUS42 KJAX 041120
TAFGNV
TAF
KGNV 041120Z 0412/0512 20002KT P6SM FEW100 SCT250
     FM041500 23006KT P6SM SCT025 BKN250
     FM041630 24007KT P6SM VCTS SCT040CB BKN150
      TEMPO 0417/0419 VRB15G25KT 3SM TSRA BKN025CB
     FM042300 19005KT P6SM VCSH SCT050 BKN120
     FM050100 20003KT P6SM FEW050 SCT120 BKN200=

USA.gov is the U.S. government's official web portal to all federal, state and local government web resources and services.